Location: Clifton Park
(41.4873°N, 81.8024°W)
Time: 10:43:15
(UTC+00:00)

SL-4 R/B - Pass Details

Date: 21 January 2020
Orbit: 428 x 666 km, 51.6° (Epoch: 18 February)

Event Time Altitude Azimuth Distance (km) Brightness Sun altitude
Exits shadow 10:56:07 49° 8° (N) 585 2.1 -20.8°
Maximum altitude 10:56:27 52° 30° (NNE) 566 2.1 -20.8°
Drops below altitude 10° 10:59:49 10° 108° (ESE) 1,541 5.5 -20.1°
Sets 11:01:55 0° 114° (ESE) 2,392 6.7 -19.7°
